Theta_e
306 306 306 306 306 306 307 307 307 308 308 308 307 306 310 315 310 302 301 303 303 307 311 307 306 308 302 299 300 301 302 302 301 301 300 300 302 302 302 301 301 301 302 303 304 301 300 302 302 300 300 298 297 292 286 288 293 296 299 298 296 297 299 299 300 299 296 295 293 293 293 295 297 294 292 293 294 294 295 295 293 292 294 294 293 293 293
306 306 306 306 306 306 307 306 306 307 307 307 307 310 313 310 303 302 303 300 304 314 315 311 308 304 300 300 301 299 299 303 303 303 303 302 302 304 303 300 299 301 301 303 303 300 299 300 298 299 301 298 293 288 286 290 296 297 297 298 296 296 299 300 298 297 296 295 295 295 295 297 297 293 291 292 292 292 292 291 290 291 294 293 292 292 292
306 306 306 306 307 307 308 307 306 307 306 307 307 308 310 310 306 309 306 298 303 310 308 309 312 308 306 304 303 302 301 301 302 303 303 301 301 303 301 299 301 301 300 302 304 301 299 299 298 298 300 298 295 290 286 289 296 296 292 292 295 297 299 301 300 296 295 296 296 297 297 296 295 292 290 291 291 291 293 291 290 291 292 291 291 291 291
306 306 307 307 308 308 308 307 307 307 306 307 306 301 306 314 312 315 312 301 301 303 299 307 315 310 312 309 300 302 304 300 298 301 302 301 301 303 301 299 301 302 302 305 308 303 297 297 300 301 301 300 297 292 289 289 292 294 292 290 294 299 300 301 302 298 297 298 297 296 297 296 296 294 291 291 291 290 292 292 290 290 291 290 290 290 290
307 307 307 307 307 307 307 306 306 307 305 306 305 300 305 317 311 307 309 305 309 311 304 309 313 307 310 309 299 302 307 302 300 300 299 300 301 303 302 300 302 303 304 305 304 301 298 297 298 299 300 300 297 292 291 293 292 292 294 291 294 300 299 297 300 298 298 299 296 295 296 295 296 295 291 291 291 290 290 291 290 290 290 290 290 289 288
306 306 306 306 306 305 306 306 305 307 306 305 306 305 306 313 306 300 302 303 310 313 306 306 309 307 308 305 301 307 311 306 304 302 299 300 300 300 301 301 302 304 302 301 300 301 303 301 298 298 298 300 301 296 295 297 294 293 295 294 294 299 298 295 296 298 298 297 296 295 295 295 295 294 291 291 291 290 290 290 289 290 289 289 288 287 286
305 306 306 305 306 305 305 307 305 306 306 304 307 307 302 304 304 299 299 303 305 304 301 302 307 308 310 308 303 307 310 305 301 300 301 303 300 299 301 301 301 303 302 301 300 301 304 303 300 299 298 299 301 299 297 297 295 294 298 296 293 296 300 297 294 296 297 296 296 296 294 295 294 292 290 290 290 290 289 289 289 289 288 287 286 285 284
305 307 306 306 308 306 305 307 304 305 307 303 306 306 302 306 309 303 304 306 302 301 301 305 311 310 310 310 303 303 307 304 300 298 301 302 301 301 303 301 301 303 304 303 301 299 300 300 299 299 300 300 301 299 296 297 299 298 298 297 293 294 299 299 295 296 297 296 296 295 293 294 293 291 290 290 290 289 288 288 288 287 286 285 284 283 283
305 307 307 306 308 307 306 307 305 306 307 304 306 303 299 302 301 301 309 308 301 303 304 306 317 315 307 306 303 303 305 302 301 300 298 301 304 302 302 303 301 300 301 302 301 299 299 299 299 299 298 299 300 297 294 295 301 301 297 296 297 298 298 298 297 297 296 296 295 293 292 293 293 292 291 290 290 288 287 287 286 285 284 284 283 282 282
305 306 306 306 307 306 306 306 306 307 306 304 305 300 298 300 297 299 310 308 299 303 306 307 315 309 300 302 304 303 304 301 300 301 300 302 304 301 300 302 302 302 302 300 299 299 299 298 296 295 295 296 296 296 294 294 297 299 298 294 292 294 298 298 296 297 296 294 293 291 291 292 292 292 291 290 288 287 285 285 285 284 284 283 282 282 282
306 306 306 306 306 306 306 306 306 307 306 305 304 299 298 303 303 306 319 313 300 299 306 310 310 302 297 301 303 302 304 303 302 301 301 302 300 299 300 300 301 306 304 296 291 292 293 293 291 291 293 295 294 294 294 295 293 293 296 297 293 292 297 296 293 296 299 294 291 291 291 291 290 291 290 289 287 285 284 284 284 283 283 283 282 282 282
306 306 306 306 306 306 306 306 306 306 307 306 305 302 301 302 305 315 329 317 301 299 307 305 302 301 300 301 303 304 304 304 303 301 301 301 300 298 299 300 302 304 297 288 287 289 291 291 292 292 291 291 292 292 293 294 292 288 291 297 299 299 299 293 290 294 296 293 291 291 291 290 290 290 291 289 286 285 284 283 283 283 283 282 282 282 282
305 305 305 306 306 306 305 306 306 306 306 306 306 304 303 301 304 314 325 316 303 303 307 300 295 299 302 301 303 303 301 300 300 299 301 302 301 301 300 300 301 298 291 288 290 293 294 295 295 294 293 291 292 293 292 291 290 290 291 293 297 300 299 293 291 293 293 291 291 291 290 290 290 290 291 288 285 284 283 283 283 283 282 282 282 282 282
304 305 305 305 305 306 305 305 306 305 305 306 305 304 303 302 306 315 320 316 305 298 298 300 299 299 302 303 303 301 299 299 298 298 299 299 302 306 303 298 297 292 289 292 293 294 298 303 306 304 299 300 300 297 294 290 289 292 292 291 293 297 297 294 291 292 292 291 290 290 290 290 291 291 290 286 284 283 283 283 283 282 282 282 282 282 282
304 304 305 304 304 305 305 305 306 305 305 306 305 305 304 302 304 309 308 309 309 301 298 303 304 303 305 306 303 301 302 306 303 299 297 297 302 306 299 293 292 290 288 293 298 301 301 304 309 309 304 304 302 296 294 293 291 291 290 289 290 292 293 293 291 291 291 291 290 289 290 290 290 289 288 285 284 283 283 282 282 282 282 283 282 282 282
304 304 304 304 304 305 304 304 305 304 305 306 305 305 303 302 303 302 301 306 314 309 302 299 298 300 305 302 297 298 305 310 307 302 303 304 304 302 295 289 289 290 292 297 304 308 306 300 300 302 299 298 297 296 296 296 294 292 290 290 291 291 289 292 293 291 290 290 289 290 291 291 289 287 286 285 284 283 282 282 282 282 283 283 283 282 282
304 304 304 304 304 304 304 304 305 304 304 305 305 306 303 302 303 301 303 310 315 307 299 295 294 298 304 302 299 300 303 305 302 299 302 304 301 301 299 293 290 292 296 303 308 310 308 302 299 301 299 295 295 297 297 296 296 295 293 293 294 293 290 290 292 291 289 289 290 290 290 290 288 286 285 284 283 283 282 281 282 283 283 283 283 282 282
304 304 304 305 304 304 304 304 305 305 305 305 305 305 303 302 304 302 305 313 317 307 295 292 295 299 301 301 301 299 299 301 300 298 303 304 299 299 301 297 296 295 295 302 310 309 304 299 297 300 299 294 293 295 296 296 297 296 294 294 293 292 289 288 289 290 289 289 289 288 288 288 287 285 284 284 283 283 282 281 282 283 283 283 283 282 282
304 304 304 304 304 305 305 305 305 305 305 306 306 304 302 302 303 301 305 310 314 308 295 290 294 297 295 295 298 296 295 298 299 300 307 307 298 295 296 295 295 296 297 304 309 303 299 298 295 295 298 298 296 296 297 297 296 294 293 293 292 291 290 288 289 289 289 289 288 286 287 287 286 284 284 284 283 282 282 283 283 283 283 282 282 282 282
303 303 303 304 304 304 304 304 305 305 305 306 306 304 302 301 302 302 305 308 304 300 294 290 293 294 292 294 298 298 297 298 299 303 309 305 295 296 302 301 298 297 299 303 303 297 297 299 295 293 298 300 297 296 296 294 293 292 292 293 292 291 291 291 290 287 286 287 287 285 285 286 285 284 283 283 282 282 282 283 282 283 282 282 282 282 281
303 303 303 304 303 304 304 304 304 304 304 305 306 305 301 300 302 302 301 303 301 299 296 292 292 292 291 291 292 292 295 298 297 300 305 301 294 297 302 303 301 300 299 300 299 296 297 299 297 295 296 296 295 295 295 295 293 289 289 292 291 289 290 292 289 286 285 286 286 285 285 285 284 284 283 282 283 283 282 282 282 282 282 282 281 281 280
302 302 303 303 303 303 304 303 303 303 303 304 305 304 300 298 299 300 300 300 298 297 296 292 291 292 291 291 291 290 291 292 291 292 296 298 296 295 297 301 301 298 297 298 299 296 296 297 298 297 296 296 297 295 292 293 296 292 288 290 290 289 290 290 288 287 287 286 285 285 285 285 284 283 283 283 283 283 282 282 282 282 282 281 281 280 280
302 302 302 303 303 303 303 303 303 303 302 303 304 303 299 297 298 299 299 298 293 292 293 291 293 294 293 292 293 292 291 291 291 289 291 295 297 296 297 298 297 295 295 298 298 297 300 300 298 297 296 295 298 297 291 292 296 293 290 290 289 288 288 287 286 287 286 284 285 285 284 284 283 283 283 283 283 282 282 282 282 281 281 281 280 280 280
302 302 302 302 302 302 302 302 302 301 301 302 302 301 299 298 298 299 298 298 296 298 297 293 294 297 296 293 293 292 291 291 291 290 289 292 295 298 299 295 293 294 297 295 292 294 299 297 293 295 296 294 295 297 295 294 294 291 290 291 288 286 287 286 286 286 284 283 284 284 283 283 283 283 283 283 282 282 282 281 282 281 281 281 280 280 279
301 301 301 302 302 302 301 301 301 301 301 301 301 301 300 299 298 299 301 302 303 305 304 299 296 295 294 294 292 291 292 292 291 291 290 290 292 295 297 293 292 294 295 291 290 296 301 297 294 297 297 293 293 296 296 294 292 288 288 289 287 286 286 285 284 284 283 283 283 283 283 283 283 282 283 282 282 282 282 281 281 281 281 280 280 279 279
301 301 301 301 301 301 302 301 301 301 301 301 301 301 300 299 298 299 300 300 300 304 305 302 297 294 294 293 292 291 292 293 292 291 290 291 291 292 293 292 292 292 292 289 290 297 301 298 296 300 298 293 293 297 296 293 290 288 288 288 287 286 285 284 283 283 283 283 283 283 283 283 282 283 283 282 282 282 281 281 281 281 280 280 279 279 278
301 300 301 301 301 301 301 301 301 301 301 300 300 300 299 300 299 299 300 300 301 306 307 302 297 296 294 292 291 292 292 293 294 293 292 292 292 291 292 293 293 294 296 293 291 295 301 300 297 297 295 292 291 292 290 289 290 290 288 286 286 285 284 284 284 283 282 282 283 283 282 282 282 282 282 282 282 281 281 281 281 280 280 279 278 278 278
301 301 301 300 301 301 301 301 301 301 300 300 301 301 300 300 299 299 300 299 301 305 305 302 298 297 296 294 292 292 293 293 294 294 294 293 292 292 293 294 295 297 300 297 294 297 302 300 295 292 291 292 292 290 287 288 291 291 288 286 286 284 283 284 284 283 283 283 283 283 282 282 282 282 282 282 281 281 280 280 280 280 279 279 278 277 277
300 301 301 301 301 301 301 301 301 301 301 301 300 300 300 299 298 299 299 298 299 300 301 301 300 296 296 295 292 291 293 294 293 294 294 294 293 293 293 293 293 292 294 295 297 300 298 295 293 292 291 292 292 291 289 290 291 290 288 287 286 285 285 284 284 283 283 283 283 283 282 282 282 282 282 281 281 280 280 280 280 279 278 278 277 277 276
300 300 300 301 301 301 301 301 301 301 301 299 300 306 309 304 298 298 299 299 298 300 303 306 304 296 293 294 293 292 292 292 293 293 294 294 293 292 292 291 289 288 291 296 297 297 296 294 293 292 290 289 291 292 290 289 289 288 287 287 286 285 285 284 284 283 283 283 283 282 282 282 282 281 281 281 280 280 280 279 279 279 278 277 277 276 275
299 299 299 300 300 300 300 301 300 301 301 299 302 311 313 305 298 297 299 299 297 299 303 304 299 295 294 294 292 291 291 291 292 292 292 292 292 291 291 292 291 290 295 299 296 293 294 294 294 293 290 289 291 291 288 288 289 287 287 287 286 284 284 284 283 283 283 282 282 282 281 281 281 281 280 280 280 280 279 279 278 278 277 276 276 275 275
299 299 299 299 299 298 299 299 299 300 301 298 299 301 300 298 298 297 296 298 298 301 307 307 299 297 299 297 292 290 291 291 290 291 291 292 292 291 291 291 291 291 294 297 296 293 293 293 294 294 290 288 289 289 288 288 289 287 286 287 286 284 284 284 283 282 282 282 282 281 281 281 281 280 280 280 280 279 279 278 278 277 276 276 275 274 274
299 299 298 298 298 298 298 298 298 299 299 297 297 296 295 296 298 297 297 298 295 295 302 307 302 297 296 294 290 290 292 292 291 292 292 291 290 292 292 291 291 292 292 294 295 293 291 292 293 292 288 285 287 290 290 288 287 286 286 286 285 284 284 283 282 282 282 281 281 281 281 280 280 280 280 279 279 279 278 277 277 276 275 275 274 274 274
299 299 299 298 298 298 298 298 298 298 298 297 297 296 295 296 297 296 298 298 296 295 298 300 300 299 299 298 296 292 291 293 296 295 293 291 289 292 294 293 293 293 292 292 293 293 292 292 293 291 288 285 286 288 289 287 286 286 286 285 284 284 283 283 282 282 282 281 281 281 280 280 280 279 279 279 278 278 277 276 276 275 274 274 274 273 273
299 299 299 299 299 298 298 298 298 298 298 297 297 296 296 296 296 297 298 296 298 304 303 296 297 302 303 304 305 297 290 293 295 292 292 291 289 289 292 294 295 294 291 290 292 294 294 292 291 290 289 287 288 290 290 288 286 286 285 284 283 283 282 282 282 282 281 281 281 280 280 280 279 279 279 278 277 277 277 276 275 275 274 273 273 273 273
299 299 299 299 300 300 299 299 299 298 298 298 297 296 297 296 296 297 298 296 298 304 305 299 298 298 296 298 300 295 291 293 293 290 291 292 290 288 291 295 296 293 289 289 293 294 290 287 289 292 290 289 290 291 288 286 286 285 284 284 284 283 283 282 281 281 281 280 280 280 279 279 279 278 278 278 277 277 276 275 275 275 273 273 273 273 272
299 299 299 299 299 299 299 298 298 298 298 297 297 297 297 297 297 296 297 296 294 294 297 301 301 294 290 292 295 292 292 294 293 292 294 295 292 290 292 296 296 292 290 293 294 291 287 286 290 294 293 290 289 289 287 286 287 285 284 284 284 282 282 282 281 281 281 280 280 280 279 279 278 278 277 277 277 276 276 275 275 274 273 273 272 272 272
299 299 299 299 300 302 302 299 297 299 298 296 298 298 296 297 300 299 296 295 294 291 290 295 297 291 288 292 293 292 293 293 292 294 294 292 292 291 292 293 294 292 292 294 290 286 288 289 288 290 292 289 287 287 288 288 287 285 284 284 283 281 281 281 281 281 280 280 279 280 279 278 278 277 277 277 276 275 275 275 274 273 273 272 272 271 271
300 299 299 299 300 301 301 298 297 299 298 296 298 299 296 295 300 300 296 295 296 293 291 293 293 290 291 295 295 293 291 291 293 296 294 292 293 293 292 293 291 290 293 295 288 285 289 291 286 287 291 290 287 287 288 287 285 284 283 282 282 281 281 281 281 280 280 280 279 279 279 278 277 277 276 276 275 275 274 274 273 273 272 272 271 271 271
300 298 298 299 298 298 298 298 297 298 298 296 298 299 298 297 298 297 297 299 298 293 290 292 290 286 287 291 293 292 290 289 291 293 293 293 293 290 290 292 290 289 295 297 289 286 290 291 287 289 293 291 287 288 288 286 285 283 282 282 282 282 281 281 281 281 280 279 279 279 278 278 277 276 276 275 274 274 274 273 273 272 272 271 271 271 270
299 298 298 298 298 297 297 297 296 296 296 297 299 299 298 298 294 291 294 300 299 292 287 288 291 291 289 288 290 292 291 288 286 287 290 293 291 289 291 292 288 289 295 295 288 288 291 291 291 294 292 289 287 288 287 286 285 283 282 282 282 282 281 281 281 280 279 279 279 278 277 277 276 275 275 274 274 273 273 272 272 271 271 271 270 270 270
299 298 297 298 297 296 297 298 297 295 296 299 301 298 295 296 296 294 294 295 293 290 288 288 289 292 290 287 287 288 287 285 285 288 291 292 290 289 291 291 289 291 292 289 285 288 291 291 294 296 291 287 287 288 286 286 285 283 282 282 282 281 281 281 280 280 279 279 278 277 277 276 275 275 274 274 273 272 272 271 271 271 271 270 270 270 269
298 297 297 297 297 296 297 298 296 295 298 302 302 300 298 298 296 294 293 291 288 288 290 288 287 288 289 286 285 286 286 286 287 289 290 289 289 290 291 291 291 290 287 285 287 292 294 294 297 295 289 287 288 288 286 284 283 281 282 282 282 281 281 280 280 279 278 277 277 277 276 275 275 274 274 273 272 272 272 271 271 271 270 270 270 269 268
297 296 296 297 297 297 298 299 296 296 300 302 300 301 302 301 297 295 295 293 290 289 289 287 287 290 291 288 286 288 288 287 287 288 287 287 289 292 294 293 291 287 285 287 291 292 290 290 292 290 287 287 287 287 286 284 282 281 282 282 281 281 281 280 279 279 278 277 276 276 275 274 274 274 273 273 272 272 271 271 271 271 270 270 269 268 268
299 299 300 302 300 298 299 301 299 299 300 300 300 303 304 302 301 301 296 289 287 289 289 287 287 290 290 287 286 287 288 287 288 289 288 287 289 292 291 290 289 288 288 291 292 291 288 289 289 288 287 287 286 286 285 283 281 281 281 281 281 281 280 279 279 278 277 276 276 275 274 274 273 273 273 272 272 271 271 271 271 270 270 269 268 268 267
298 298 300 304 302 296 297 302 302 300 299 298 300 305 305 301 300 297 289 284 287 290 289 287 287 289 290 289 286 285 286 288 289 288 286 288 291 292 288 285 287 290 291 291 293 295 294 291 289 288 288 287 286 286 284 281 280 281 281 280 281 281 280 279 278 277 276 276 275 274 274 273 273 272 272 272 271 271 271 271 270 270 269 268 268 267 267
297 294 297 302 302 297 297 300 298 295 295 295 294 294 292 289 289 287 282 281 284 286 283 282 284 285 286 286 286 286 286 287 287 286 285 287 291 291 287 287 289 291 290 290 294 298 297 292 289 288 288 286 286 286 283 280 280 280 280 280 280 280 279 278 278 277 276 275 274 274 273 273 273 272 271 271 271 271 271 270 270 269 269 268 268 267 266
298 296 298 301 302 300 299 297 292 289 289 287 285 283 280 282 287 288 282 277 279 283 285 286 287 287 287 286 286 288 288 287 287 287 286 286 289 291 291 291 292 291 288 290 295 296 294 292 290 289 288 287 287 285 283 281 280 280 280 280 280 279 279 278 277 276 276 275 274 273 273 273 272 272 271 271 271 270 270 270 270 269 269 268 267 266 266
295 296 296 297 297 297 293 288 291 295 292 284 281 281 281 285 293 291 282 277 279 283 283 283 286 289 289 286 287 289 288 287 287 288 287 288 292 292 290 292 295 293 291 292 294 293 291 291 290 289 289 288 286 282 280 280 280 280 280 280 280 279 278 278 276 276 275 274 273 273 273 272 272 271 271 270 270 270 270 270 269 269 268 268 266 266 266
293 295 295 294 296 296 289 286 294 298 295 290 290 288 285 289 295 290 281 278 280 281 281 283 286 288 287 286 289 292 290 286 286 289 291 292 293 290 288 291 297 296 293 292 292 291 291 291 290 289 289 287 283 279 278 280 281 280 280 281 280 279 279 278 276 275 275 274 273 273 273 272 271 271 270 270 270 269 269 269 269 268 268 267 266 266 265
294 296 294 290 292 295 293 295 301 302 298 300 303 295 288 293 296 288 280 280 282 285 288 290 289 288 290 291 291 291 288 284 285 289 290 289 288 288 291 296 298 295 294 293 290 290 291 290 287 287 288 286 282 280 280 281 281 281 280 280 280 279 278 277 276 275 274 274 274 273 272 272 271 271 270 270 269 269 269 269 269 268 267 267 266 266 265
298 296 292 287 287 291 293 294 298 300 299 300 297 289 286 290 289 282 279 283 287 289 290 289 288 291 293 292 288 287 287 286 288 291 291 289 287 289 295 299 296 291 290 290 288 289 288 284 280 280 282 282 281 281 281 281 281 281 281 280 280 279 278 277 276 275 274 274 273 273 272 272 271 271 270 269 269 269 268 268 268 267 267 266 266 266 266
Wind_Speed
12 11 9 7 5 4 3 1 2 2 3 3 1 3 4 4 3 6 13 5 6 12 7 3 5 4 1 1 1 2 2 2 1 2 2 1 1 3 2 1 1 1 1 0 1 1 0 1 0 1 2 2 1 0 3 3 3 1 1 2 1 1 2 2 5 5 2 3 3 2 5 9 7 4 3 3 2 2 4 3 2 3 4 2 2 9 9
8 7 6 5 5 5 5 6 6 6 6 4 4 5 3 3 3 5 16 8 3 6 5 2 3 2 0 3 3 3 1 2 2 2 2 2 1 2 1 0 1 1 1 1 1 1 0 1 1 1 2 2 1 1 3 3 1 0 1 1 2 2 1 2 5 6 6 5 4 3 2 3 4 2 3 3 3 3 1 1 3 2 4 1 3 9 11
6 5 5 5 5 4 4 5 5 5 5 3 5 6 4 4 2 3 15 19 11 4 3 6 5 3 3 5 4 4 2 2 2 1 1 1 2 2 1 1 1 1 1 1 1 1 1 1 1 1 1 2 0 0 2 2 0 0 1 2 2 1 1 3 4 3 6 6 6 6 5 3 2 2 3 3 3 4 2 1 1 2 6 7 5 9 15
5 5 5 4 3 3 4 5 4 4 3 4 7 7 4 3 4 3 8 14 11 4 1 4 6 4 4 4 3 2 2 1 1 2 1 0 1 2 1 1 1 2 3 2 2 2 1 1 1 1 2 3 2 1 1 1 1 1 1 1 2 3 1 2 5 4 5 6 9 7 4 4 4 1 3 2 1 3 3 1 1 5 10 10 7 10 19
7 6 5 4 3 2 3 3 3 5 6 6 7 9 5 3 3 2 1 4 5 5 4 5 4 3 4 3 1 1 2 2 1 1 1 1 1 2 2 2 2 2 3 3 2 3 2 1 1 1 3 3 3 2 1 0 3 2 1 1 3 4 2 1 3 5 7 8 11 9 5 5 4 1 3 1 1 1 4 1 6 8 8 9 11 17 21
6 5 4 4 3 3 1 3 3 2 2 2 5 6 5 3 3 1 1 2 2 3 3 3 5 5 4 3 2 2 3 3 1 1 2 1 0 1 1 4 3 2 1 2 1 4 4 3 1 0 2 3 4 3 1 1 3 1 1 2 3 4 1 1 2 5 9 9 11 8 4 3 2 5 3 1 1 1 3 3 8 9 7 11 19 22 21
4 4 4 4 4 6 6 5 4 4 3 3 7 6 3 3 4 0 2 3 3 1 2 3 6 6 5 3 2 2 3 3 0 2 2 3 3 2 2 4 5 4 4 3 2 1 1 2 3 1 1 2 2 2 0 2 2 2 3 4 1 3 1 1 3 4 9 9 7 5 5 4 1 5 3 2 2 3 5 6 9 10 12 15 19 22 20
7 6 6 5 5 6 7 7 7 7 6 5 8 7 2 3 4 2 4 5 2 2 3 3 4 5 4 3 2 1 3 2 1 1 1 1 3 3 2 4 5 4 4 3 2 4 6 4 5 4 2 2 1 1 1 1 4 4 3 2 2 3 4 0 3 3 7 5 3 7 7 4 2 3 1 2 3 3 6 8 8 10 15 18 18 19 16
13 12 11 9 9 7 7 8 7 6 6 7 7 6 4 5 5 6 7 4 4 3 3 2 4 4 4 2 1 0 2 2 2 1 2 3 2 1 2 4 3 1 2 3 4 6 7 7 7 6 3 1 2 1 1 1 3 5 3 3 4 5 4 2 4 5 6 2 6 13 10 3 4 1 3 5 6 7 8 7 7 11 17 20 19 15 11
18 17 16 14 13 12 10 10 9 8 8 9 8 5 5 7 5 4 7 5 3 3 2 3 4 2 2 1 2 2 3 5 3 2 1 2 3 4 5 5 3 1 2 3 3 5 5 4 2 1 2 2 3 2 3 5 4 2 2 2 2 2 2 3 4 4 8 8 11 14 9 5 4 2 2 5 11 13 13 10 11 13 13 13 14 11 11
21 20 20 18 17 15 13 11 9 8 7 8 10 9 7 6 4 3 7 6 3 3 2 3 3 2 3 3 2 2 3 4 3 3 2 2 3 2 4 4 2 2 3 1 4 4 4 4 4 5 6 7 7 5 5 8 6 1 3 3 0 1 3 2 2 1 7 12 14 12 6 5 4 1 3 5 12 14 17 16 14 14 12 10 11 11 16
23 22 21 20 19 18 16 14 12 11 10 10 14 15 9 5 6 4 6 6 2 4 3 1 1 3 4 3 2 3 4 4 3 2 2 2 2 1 3 3 1 2 2 5 7 6 7 6 5 6 9 9 8 9 10 9 6 4 2 4 3 3 4 2 1 0 3 7 10 10 6 3 2 3 2 4 7 11 20 22 15 14 14 13 14 16 19
24 24 22 21 21 19 18 17 15 14 12 9 13 17 11 7 8 5 6 7 0 3 3 2 3 2 3 3 2 2 3 2 2 2 1 2 2 2 3 4 1 1 6 9 7 6 5 4 4 4 5 5 6 9 10 8 6 5 4 3 4 4 3 2 1 0 2 4 5 4 6 5 2 0 1 4 8 12 18 22 18 14 10 10 16 20 19
24 24 24 23 22 21 20 19 16 14 10 7 12 17 11 6 6 4 5 7 1 4 3 4 1 2 2 2 2 1 2 3 2 2 2 1 2 5 4 3 2 4 9 8 5 3 2 2 4 3 3 4 5 4 2 3 5 6 6 4 3 5 4 1 3 1 1 4 3 3 6 6 4 2 1 3 9 12 12 17 19 11 4 8 16 20 21
24 24 24 24 23 22 21 20 18 15 11 9 12 16 13 9 8 7 7 7 4 2 2 3 4 4 3 2 2 2 1 2 1 1 2 1 2 6 4 1 1 4 7 5 3 3 2 2 3 3 3 2 2 2 2 0 3 4 4 4 5 5 4 3 3 2 2 2 4 3 5 5 1 3 3 4 8 11 10 13 13 5 4 11 17 21 26
25 25 25 24 23 22 21 20 18 16 13 10 12 18 18 15 12 13 12 8 6 3 2 4 4 4 3 1 1 2 1 0 1 2 4 4 3 5 2 1 1 3 4 3 3 4 4 2 2 2 1 2 2 2 2 1 1 2 3 5 8 7 4 4 4 2 2 2 3 3 4 4 3 3 7 9 10 12 10 9 8 7 12 17 19 23 28
26 26 25 25 24 22 21 19 17 17 14 10 11 16 18 14 11 13 12 7 5 3 1 2 4 3 2 2 0 0 2 1 2 1 2 3 3 5 4 2 1 2 4 4 3 4 5 3 2 2 1 2 2 1 2 1 2 4 4 5 7 6 4 4 5 2 2 3 3 3 3 4 3 3 9 13 13 11 10 9 10 14 19 21 21 24 27
26 26 25 25 24 23 22 19 16 15 13 11 12 17 18 13 8 9 10 7 5 2 1 1 4 2 1 3 2 1 2 1 1 1 1 3 1 3 4 3 2 2 3 4 3 3 4 2 1 3 1 2 1 1 2 1 2 3 3 3 3 2 2 2 3 3 4 3 3 3 4 5 4 7 12 15 14 10 8 10 12 16 22 23 22 23 24
26 26 25 24 23 23 22 21 18 16 13 9 8 13 16 13 10 12 13 8 4 3 1 0 1 1 1 1 1 1 1 2 2 2 1 3 2 0 2 2 1 2 2 4 3 2 3 0 1 3 1 3 2 1 1 1 0 1 2 2 2 2 2 1 1 2 2 2 3 5 4 3 5 13 14 12 11 9 8 11 13 16 21 23 23 23 22
25 25 25 24 23 22 21 22 21 18 16 10 7 13 16 10 6 7 9 9 6 4 3 2 1 2 1 2 2 1 1 2 2 2 2 1 1 3 5 3 2 2 2 3 2 1 2 1 2 1 2 2 1 1 1 1 0 0 1 0 1 1 2 2 2 2 2 2 2 3 4 3 10 15 12 8 8 9 10 12 14 16 20 21 20 21 20
24 24 24 23 23 22 21 22 21 18 16 11 10 17 22 18 12 9 14 21 15 4 1 2 4 6 6 5 4 2 1 2 1 1 1 2 1 3 2 3 2 0 0 1 2 1 2 3 2 1 2 1 0 1 1 1 2 2 1 2 2 1 1 1 2 1 1 2 1 2 7 9 10 10 9 9 10 10 10 12 13 16 17 16 16 19 20
23 23 23 23 22 22 22 22 21 18 16 12 12 20 26 26 24 20 20 27 24 11 7 9 9 11 12 10 9 7 3 2 1 0 1 1 2 1 3 3 2 2 2 2 2 1 1 2 2 1 1 1 1 1 1 2 1 3 1 3 1 3 3 2 2 2 2 4 7 8 9 9 7 7 10 12 13 11 11 13 14 15 14 12 13 17 20
23 23 22 22 22 22 22 22 21 19 16 13 14 21 25 24 22 20 21 27 25 14 10 10 8 9 10 9 10 10 8 4 1 1 2 1 1 0 1 2 1 1 1 2 1 3 3 2 2 3 2 1 2 2 1 1 1 2 1 1 2 3 1 2 0 3 4 6 9 10 10 10 10 10 10 11 11 9 10 13 13 12 12 11 11 14 17
23 23 22 21 21 20 20 21 21 20 19 16 16 23 27 24 21 19 19 18 12 6 5 6 4 3 4 6 7 9 9 8 4 1 1 2 0 1 2 0 1 1 1 1 2 3 3 2 2 3 2 1 3 3 1 0 2 2 1 1 3 2 0 1 1 2 4 4 6 8 11 13 16 14 11 11 12 11 11 11 12 13 14 14 14 15 16
22 22 21 20 19 19 18 17 16 16 17 15 14 17 21 18 13 11 11 9 6 5 4 4 4 3 3 5 6 7 8 9 5 1 0 1 2 1 1 1 1 1 1 2 2 4 4 2 2 3 2 2 2 2 1 1 2 2 2 1 3 1 2 2 2 2 4 8 11 12 12 11 11 11 10 11 13 14 16 16 17 18 20 21 22 21 17
19 19 20 20 19 18 17 16 14 14 12 10 11 14 17 17 13 12 14 14 10 6 5 1 2 3 3 5 6 7 8 9 6 3 2 0 1 2 2 2 3 3 4 3 3 3 4 3 3 3 2 2 2 2 2 2 2 2 2 2 3 1 1 1 4 4 6 9 11 14 14 10 9 11 12 13 14 16 18 19 20 21 21 21 25 28 24
18 15 15 16 18 19 19 17 17 16 14 13 14 15 17 15 12 8 8 8 4 3 3 2 2 2 3 6 9 10 9 8 7 6 4 2 2 2 3 4 4 4 4 4 3 3 4 3 2 2 3 1 2 3 2 2 3 3 1 2 1 2 1 2 3 4 5 7 9 12 12 11 11 15 16 16 17 17 17 17 18 18 19 19 21 26 29
20 17 13 11 11 14 18 20 21 21 20 19 19 20 22 20 16 11 7 4 3 5 4 3 2 1 2 4 10 12 9 8 8 8 7 7 6 4 4 4 3 2 3 3 2 2 3 2 2 2 2 1 2 2 1 1 3 1 1 2 1 0 1 2 3 3 7 10 10 9 9 9 13 16 15 17 19 17 15 17 17 17 21 23 21 22 24
22 21 18 12 7 6 7 10 13 14 15 14 14 17 22 23 22 19 15 12 13 13 7 2 3 2 1 3 8 10 7 8 10 10 10 10 9 8 7 6 4 3 3 3 3 3 2 2 2 1 1 1 2 2 1 2 1 1 3 4 3 2 3 3 4 6 9 10 8 8 9 11 14 16 15 18 21 16 13 16 19 20 26 29 25 24 24
20 21 21 19 15 8 2 1 1 2 3 4 5 7 10 13 15 16 14 11 11 11 6 3 3 1 2 1 5 9 7 5 7 9 10 10 10 9 8 7 5 3 3 2 3 3 2 0 0 1 1 1 3 3 2 2 2 2 3 4 3 2 3 4 4 6 8 9 8 9 10 11 15 18 17 20 25 23 17 18 22 26 32 32 28 27 29
18 19 20 21 21 19 14 8 2 3 4 3 3 3 3 3 8 11 11 8 7 7 6 5 2 1 2 1 3 8 8 4 3 4 6 7 8 7 6 5 3 2 2 2 1 2 2 1 1 1 2 3 4 4 3 3 2 3 4 4 3 3 4 4 4 6 9 11 10 10 10 11 13 15 15 20 29 29 23 22 26 30 33 32 30 28 28
15 16 16 18 19 21 22 20 15 10 10 14 14 11 6 1 5 8 8 6 5 5 6 4 2 1 2 2 2 7 8 4 3 4 3 3 4 4 4 4 2 2 3 3 2 1 1 1 2 1 1 3 4 3 3 4 3 4 5 4 3 3 4 4 5 7 10 10 9 9 11 11 11 12 15 22 29 28 23 24 30 33 32 30 27 26 26
12 13 13 14 15 16 18 20 19 20 24 27 26 22 18 11 6 5 5 6 7 6 5 4 3 1 1 2 2 7 8 4 2 4 3 2 3 3 2 3 3 2 3 2 2 1 1 2 2 2 1 2 3 3 3 2 3 4 4 3 3 3 4 5 6 7 8 9 7 7 9 12 14 17 22 25 27 25 25 27 29 30 29 24 20 21 25
8 9 10 11 13 14 15 15 17 18 21 21 20 21 23 22 17 12 5 3 5 7 6 4 3 0 3 1 1 6 8 4 2 3 2 3 5 3 1 3 3 2 3 2 2 1 1 1 2 2 0 1 2 2 1 2 3 3 4 4 4 4 4 5 5 5 6 9 9 9 12 15 18 19 20 21 22 24 26 27 26 24 21 17 15 20 25
6 6 6 6 8 10 9 10 11 13 14 14 12 13 17 19 22 22 15 7 4 3 3 4 3 1 4 4 2 5 8 5 1 1 1 2 4 3 1 2 2 1 1 2 1 2 1 1 2 2 0 1 1 1 3 3 4 4 4 4 4 4 4 5 4 5 7 12 13 13 15 16 16 14 13 14 18 21 23 25 25 23 19 16 17 23 26
5 4 3 3 4 6 6 7 8 9 8 7 7 8 10 10 13 18 20 18 14 6 2 1 3 2 1 2 3 5 8 5 1 2 2 2 3 3 2 2 1 0 1 2 2 1 1 1 1 1 1 1 2 3 3 3 3 4 4 4 4 4 4 6 7 7 9 12 12 12 12 13 12 11 10 12 18 22 22 21 21 21 18 16 18 21 23
6 5 3 1 2 4 5 7 8 7 6 6 5 5 6 5 5 9 13 16 16 12 6 4 2 1 1 1 3 5 7 3 2 3 3 1 2 2 2 2 0 1 2 3 1 0 1 2 2 1 2 3 3 4 3 3 3 4 3 4 4 4 4 6 8 8 10 12 12 11 12 14 14 14 14 15 18 20 19 18 18 18 19 18 17 19 23
6 6 4 3 3 3 3 4 5 4 5 7 5 3 6 6 5 5 6 6 8 9 7 5 1 1 0 1 3 4 4 2 1 3 2 1 1 2 1 2 0 1 1 2 2 1 1 3 2 1 3 3 1 2 4 3 3 3 3 3 5 5 6 8 8 7 8 11 12 12 13 14 15 15 15 15 18 20 19 20 22 23 23 23 24 25 28
6 5 5 5 4 1 0 2 4 4 5 6 5 3 4 6 5 3 3 3 3 4 4 3 1 1 1 1 3 3 3 2 2 3 2 1 1 2 1 1 0 1 2 1 1 1 2 2 2 2 3 3 2 2 4 3 2 3 4 5 6 8 8 9 9 7 6 7 10 11 12 13 14 13 12 12 16 20 22 25 26 26 26 28 30 29 27
6 5 4 4 2 2 2 3 4 3 3 4 5 3 2 4 3 1 1 3 3 2 2 2 0 2 1 1 2 2 3 3 1 1 1 1 1 0 1 1 1 1 1 2 1 1 1 1 2 2 2 3 2 3 3 2 2 5 6 6 7 8 9 10 11 10 9 10 12 13 14 15 16 16 14 13 13 15 19 23 26 29 29 30 31 30 29
4 4 3 3 3 3 3 4 5 3 2 2 4 3 2 2 2 1 2 3 3 2 1 2 2 3 2 1 2 2 3 3 2 2 1 1 1 1 1 1 1 1 1 3 2 2 3 1 1 2 3 4 3 3 3 3 3 5 6 7 8 8 9 10 11 12 11 10 12 13 15 18 20 22 21 20 18 18 19 22 27 31 32 31 31 32 33
5 5 5 5 4 2 3 4 6 5 3 2 2 2 1 1 2 2 2 1 0 2 1 1 0 3 3 1 2 2 2 3 3 2 1 2 1 1 1 1 2 1 1 3 1 3 2 1 3 3 4 4 4 4 3 3 4 5 7 9 9 9 9 9 11 12 12 11 12 14 16 18 22 24 25 24 23 24 25 26 27 30 32 33 34 34 35
5 5 5 4 3 4 4 4 4 3 2 2 2 2 2 2 2 1 2 2 1 1 2 2 2 3 2 1 1 2 1 2 2 1 1 1 1 2 2 2 1 0 1 1 3 3 0 2 3 4 4 4 4 4 4 4 5 6 8 10 10 9 9 9 9 11 13 12 12 14 16 18 21 24 26 26 25 25 28 31 31 31 32 35 36 36 35
2 3 3 2 2 4 3 2 2 2 2 2 1 1 1 3 2 0 1 2 1 1 1 1 2 2 2 1 1 1 1 1 2 1 0 1 1 2 2 1 2 1 1 2 2 0 3 3 4 4 4 3 4 5 4 4 5 5 7 11 11 10 9 10 10 11 12 13 14 15 17 18 20 23 26 28 26 25 28 31 32 32 33 34 36 38 39
0 2 4 3 3 3 1 1 2 2 2 0 1 4 3 2 3 3 2 1 1 1 2 1 2 0 3 2 1 1 1 1 2 1 1 1 2 1 1 2 1 1 2 1 1 2 3 3 3 4 4 4 5 5 4 5 6 6 6 8 10 10 9 9 10 10 11 13 15 17 18 19 19 20 24 28 28 25 26 27 28 29 31 32 33 38 42
3 2 3 3 1 2 1 1 1 1 1 2 3 4 4 3 4 4 2 1 1 1 1 0 3 2 2 2 1 1 1 1 1 0 1 2 1 2 2 1 1 3 2 2 2 2 4 4 4 3 4 5 5 5 4 6 9 8 6 6 8 10 10 10 10 11 12 14 16 18 19 19 19 19 22 26 28 26 26 27 29 29 29 29 30 34 40
3 2 3 2 1 1 1 1 1 1 2 3 4 4 3 1 2 2 2 2 2 2 1 1 1 1 1 1 1 1 1 1 1 1 0 1 1 2 1 2 1 0 1 1 4 4 4 3 3 4 5 5 5 5 5 6 9 9 8 8 9 11 11 10 11 11 13 15 17 18 19 20 21 22 23 25 28 28 26 27 30 31 30 30 33 36 39
2 1 2 2 1 1 0 1 1 0 1 1 1 1 1 0 1 3 3 3 3 2 2 1 0 1 1 1 1 0 1 1 1 1 0 1 0 1 3 3 2 2 2 3 4 4 3 3 4 5 5 5 4 5 5 6 8 9 9 10 10 11 11 11 11 12 14 15 16 18 19 21 23 24 23 25 28 30 30 29 31 31 31 32 35 38 38
5 3 2 2 2 2 1 2 2 1 2 1 0 0 1 1 2 4 3 4 3 1 2 2 1 0 1 1 2 1 1 1 0 0 2 2 0 0 0 1 3 3 2 4 4 3 3 4 5 5 5 5 5 5 6 8 10 11 11 11 12 12 12 12 12 13 15 16 16 18 21 22 23 24 24 24 27 31 33 33 31 30 31 33 34 36 37
6 4 2 2 1 1 1 2 2 2 5 4 2 1 2 2 3 4 5 5 2 1 1 1 1 1 0 1 2 2 1 1 1 1 1 1 1 1 0 2 3 4 4 4 4 4 5 5 4 5 6 6 5 6 9 11 12 13 14 14 13 13 13 13 13 13 15 17 18 19 21 21 22 23 23 24 26 30 33 33 31 31 34 37 37 36 37
3 3 2 1 1 2 3 3 3 2 3 4 3 3 4 3 3 5 8 7 3 3 2 0 0 2 2 2 1 0 1 0 1 1 1 2 2 3 2 4 5 4 4 4 4 4 4 4 4 4 5 5 6 9 13 14 15 16 16 15 14 14 15 15 15 14 16 18 19 20 20 21 23 24 25 25 26 27 28 31 33 35 38 40 40 38 37
2 2 1 1 1 2 3 3 2 2 3 3 3 3 2 2 3 7 9 7 4 2 1 1 2 3 1 1 0 0 0 1 1 1 3 3 2 3 4 5 5 4 4 5 6 5 5 5 7 7 7 8 10 13 16 17 18 19 18 16 14 14 15 17 17 17 18 19 21 22 22 23 25 26 27 27 25 22 23 27 32 35 38 40 40 38 38
Wind_Direction
118 114 109 111 111 116 136 152 212 215 184 180 117 69 62 76 117 349 353 1 98 70 61 335 26 66 41 51 79 21 62 82 7 20 27 359 9 41 51 58 58 106 182 199 163 111 160 232 21 209 243 250 223 306 351 312 271 215 21 321 308 42 70 11 299 283 303 15 36 71 106 93 76 47 51 86 93 115 164 204 311 324 285 284 294 284 288
116 110 102 100 101 104 102 95 103 116 119 111 85 96 102 102 147 14 12 16 139 88 93 132 62 72 95 54 27 355 47 73 25 17 8 6 88 72 51 334 38 92 174 119 160 257 102 188 254 190 215 226 137 56 326 316 276 121 39 327 325 344 49 37 356 340 343 5 8 327 323 47 67 41 19 58 54 27 82 113 25 318 259 288 313 285 288
117 111 105 109 110 107 100 97 113 122 111 89 87 114 126 69 87 334 17 38 66 101 145 138 123 137 104 69 25 3 40 48 28 92 59 16 154 109 55 254 87 109 117 61 321 299 59 229 300 46 232 259 349 83 300 308 200 117 316 295 324 19 115 91 73 360 326 323 311 302 314 345 60 89 31 39 60 50 60 79 20 298 293 305 287 274 293
120 116 115 122 114 102 104 95 100 106 91 99 98 96 108 74 55 330 1 29 52 78 98 92 107 140 118 76 19 34 68 334 293 128 99 21 120 71 21 250 92 61 64 43 319 310 12 41 71 85 251 273 280 225 237 316 263 281 301 316 74 95 100 106 135 196 260 257 263 288 335 321 294 35 40 358 359 70 78 111 269 295 300 295 269 281 301
124 124 122 125 107 110 138 113 91 99 90 95 91 65 55 95 82 58 5 9 34 45 24 39 80 137 129 101 38 29 19 314 307 102 126 187 111 69 34 42 52 21 42 52 293 291 338 12 84 137 248 272 291 263 173 191 296 298 261 207 92 82 32 74 164 228 250 251 269 294 324 292 275 86 65 333 266 73 74 45 294 300 296 291 301 309 308
128 130 125 121 90 50 189 198 190 144 97 89 94 56 26 76 130 183 131 80 60 46 30 54 71 65 83 109 104 37 18 19 26 320 332 7 72 120 45 17 13 259 258 79 336 325 352 342 316 139 250 292 338 346 162 244 303 321 2 349 97 104 72 151 179 257 269 268 274 283 283 264 165 121 126 149 191 335 9 302 288 297 287 290 305 310 306
116 120 118 115 87 59 75 120 134 111 98 92 93 80 38 85 113 318 21 89 144 155 22 74 75 57 62 81 67 74 70 57 351 262 358 360 332 75 83 323 309 257 234 138 119 307 6 311 292 228 196 297 360 32 213 278 319 49 39 357 102 129 298 210 169 277 282 272 269 276 288 288 127 126 155 183 204 273 317 305 291 294 286 287 300 304 302
92 94 96 93 87 78 81 98 109 101 95 84 77 76 83 142 141 137 67 72 87 42 18 57 72 44 45 68 52 91 106 80 253 230 98 16 316 35 79 273 269 237 217 150 147 212 187 209 245 195 139 307 252 136 164 269 340 22 50 343 340 15 333 267 109 325 289 267 297 316 311 285 186 137 134 297 276 295 325 318 307 307 300 300 308 306 303
83 80 82 79 78 81 81 86 94 92 93 91 76 66 78 102 125 134 111 66 7 16 18 53 82 38 19 80 168 174 157 180 186 225 216 189 204 191 188 229 228 200 223 204 223 230 200 208 230 197 162 234 202 145 117 143 348 3 34 358 357 20 351 350 56 359 297 295 347 326 328 70 114 46 338 337 340 337 330 323 319 318 313 313 316 312 309
79 76 75 74 73 75 75 77 80 83 92 95 90 99 110 96 93 109 104 75 357 4 6 22 79 73 324 194 194 213 211 211 186 150 230 228 215 209 196 192 189 213 285 249 221 218 200 208 258 173 118 92 88 73 75 79 47 22 86 36 358 39 3 348 36 353 308 333 340 317 320 52 52 329 303 350 348 336 327 327 322 317 316 314 313 312 318
77 75 75 73 72 71 68 70 75 79 89 100 113 137 152 131 116 84 80 78 348 339 35 31 64 131 226 209 188 196 196 217 206 151 161 243 240 206 182 171 178 258 251 160 96 106 121 104 73 70 71 65 63 61 64 60 47 62 125 99 341 30 47 31 44 346 305 323 331 323 339 21 345 259 134 12 352 335 323 322 321 320 320 312 308 316 324
75 74 74 73 74 72 70 71 71 75 88 106 120 132 146 134 114 91 85 98 330 337 65 81 232 192 210 204 176 185 181 197 221 179 174 232 210 159 178 166 72 305 192 117 91 98 100 84 74 63 56 61 69 63 58 51 26 356 84 125 117 31 44 76 64 334 275 316 345 354 359 349 277 194 137 354 346 332 320 317 322 329 325 319 323 325 322
72 72 71 70 71 70 69 70 70 75 88 101 107 116 129 122 100 89 96 106 53 312 103 138 245 213 191 178 146 180 219 249 313 327 285 244 215 252 229 187 165 125 138 122 105 113 112 67 55 58 46 51 64 59 53 45 22 8 19 81 97 66 66 93 69 328 303 345 17 355 305 306 343 284 262 326 343 345 331 320 323 334 329 325 328 321 315
71 70 68 66 66 66 65 66 67 72 84 92 96 106 117 106 94 112 113 102 136 249 147 117 222 219 182 179 133 75 303 309 344 313 271 211 219 245 240 206 171 121 130 127 102 97 125 63 46 31 358 13 23 26 50 40 24 22 8 359 58 98 107 49 358 45 42 322 298 256 287 325 13 341 272 356 344 345 336 314 314 327 342 331 325 317 317
70 68 67 65 63 63 62 63 64 68 73 74 84 97 97 82 93 123 123 110 122 209 191 167 189 182 163 185 171 110 357 336 8 296 302 339 245 247 239 214 106 112 124 122 79 60 62 62 51 15 355 18 3 301 257 357 11 17 12 20 54 71 93 85 12 11 105 286 289 311 328 327 304 268 302 350 336 329 322 302 299 314 343 331 328 323 323
68 67 66 64 61 61 61 61 62 64 65 67 81 91 87 78 90 106 104 104 110 113 195 200 170 143 130 144 217 151 126 15 42 350 333 333 297 279 285 349 49 106 99 73 67 72 52 58 130 108 343 213 210 283 313 9 344 341 11 46 52 41 43 85 72 24 55 12 312 313 308 282 205 255 309 337 336 324 316 295 291 330 341 336 333 328 325
67 66 65 64 61 59 58 58 60 62 61 63 81 89 84 80 96 104 95 86 90 96 207 173 119 102 104 106 306 163 125 129 110 89 318 302 297 301 315 347 18 111 92 61 34 59 65 64 102 82 300 232 166 310 306 356 340 320 337 14 37 31 1 24 44 30 11 343 286 245 254 260 239 290 324 338 334 323 324 319 318 335 337 334 331 326 324
66 65 64 64 62 60 58 55 53 57 60 63 76 83 82 80 93 105 99 89 90 102 279 124 122 140 177 144 169 193 121 91 61 106 286 298 300 300 314 353 12 4 78 80 49 60 78 70 70 91 225 257 56 350 294 9 336 303 317 342 13 29 345 12 36 357 334 323 288 277 262 251 278 329 341 342 332 327 338 328 321 330 329 325 324 324 322
63 63 61 60 60 59 58 56 52 51 53 53 68 75 72 75 94 102 97 84 74 110 139 16 141 176 268 105 119 111 105 95 101 110 30 338 316 338 349 11 31 347 36 81 89 94 92 56 230 129 148 294 328 100 92 60 153 299 349 360 23 14 325 332 22 334 312 283 291 304 274 229 340 344 344 350 345 336 328 317 316 324 322 319 320 320 319
62 61 59 57 57 56 55 56 53 50 50 54 79 81 71 74 100 99 102 110 102 87 73 18 48 117 65 28 64 81 50 56 81 131 118 283 279 53 35 349 318 342 13 52 63 118 124 169 246 175 160 249 260 128 102 14 39 121 321 184 108 28 321 308 307 294 300 304 325 320 293 324 5 353 341 352 349 319 308 312 315 318 316 316 319 318 318
61 60 58 56 56 54 54 55 52 51 56 64 89 86 74 71 79 91 118 122 114 97 83 80 80 88 77 56 63 94 133 108 103 186 181 250 299 65 83 243 244 211 72 93 93 207 165 163 213 228 164 196 351 97 155 52 9 303 236 148 127 130 158 268 279 277 23 345 284 258 283 310 352 353 326 320 318 306 308 314 314 316 318 319 318 317 319
59 59 57 56 56 54 55 57 55 55 62 67 83 89 85 84 88 96 107 101 90 86 117 110 87 76 68 54 46 44 51 121 143 144 114 282 306 81 136 178 168 171 185 119 105 207 169 144 164 161 153 137 64 88 125 94 359 295 335 88 142 224 190 188 247 236 195 238 255 269 285 302 327 326 306 304 305 305 312 314 311 313 316 316 316 316 317
58 57 55 53 55 54 55 60 59 58 63 63 73 93 101 100 96 100 102 93 86 87 100 96 82 67 51 35 33 34 31 42 73 167 111 77 318 304 129 130 134 187 166 99 136 180 157 150 150 129 136 146 107 103 74 60 231 252 56 94 250 253 186 130 290 286 264 244 254 277 296 306 310 307 300 298 300 304 310 309 308 309 310 312 314 313 314
56 57 54 52 54 54 57 63 65 66 70 68 73 93 105 105 100 100 99 95 93 92 72 56 52 46 9 1 18 21 18 27 33 296 149 117 117 326 322 300 112 42 334 195 170 131 115 141 136 102 106 173 127 121 113 287 228 183 102 330 295 293 203 173 237 306 309 291 279 295 309 311 310 310 308 306 309 314 318 316 312 312 313 315 316 314 314
51 53 54 54 56 57 61 66 69 72 73 70 76 96 105 100 94 96 95 93 105 115 90 33 359 354 334 346 8 6 1 8 12 359 251 175 173 165 294 285 79 88 166 176 140 87 74 103 126 110 128 164 145 152 178 195 193 155 119 294 285 256 181 229 261 272 278 281 288 301 306 296 291 299 310 317 321 324 325 322 318 317 317 318 321 323 322
48 49 53 55 58 61 64 67 68 71 74 76 84 96 97 89 79 84 93 96 97 94 93 79 323 360 42 32 12 2 0 5 14 35 40 357 173 160 171 141 89 94 102 90 82 95 101 105 109 118 143 149 130 154 173 162 142 115 125 197 241 289 126 235 282 284 270 275 297 317 321 310 305 316 322 323 323 324 322 321 320 321 321 321 324 326 325
48 48 53 59 63 67 70 73 74 73 76 83 88 91 90 83 76 79 90 90 77 59 92 141 258 312 68 54 22 12 15 19 27 38 39 51 103 142 166 142 108 81 67 53 49 84 89 76 83 131 167 170 96 114 150 144 114 97 131 205 229 357 346 279 304 313 296 300 318 329 325 317 319 324 323 319 320 321 320 319 321 322 322 323 323 323 323
47 48 51 62 75 79 82 84 85 84 81 79 79 80 76 66 59 60 56 53 97 115 127 155 177 153 106 47 16 14 25 37 43 49 52 61 81 106 133 130 112 74 67 79 89 77 70 80 115 143 173 160 96 91 46 51 77 62 254 206 168 335 275 299 318 296 285 297 310 318 311 299 304 313 316 315 316 317 314 314 317 318 320 323 322 320 322
43 44 47 54 70 95 103 93 88 89 88 79 72 74 71 62 58 63 65 76 99 106 102 96 96 82 53 6 4 9 31 52 54 60 66 71 80 91 91 89 95 107 105 105 106 96 94 135 160 176 202 161 147 131 79 85 99 230 213 186 180 210 225 262 286 281 287 296 305 310 305 297 302 310 310 309 312 314 312 314 319 321 322 323 322 320 322
41 41 44 46 50 57 80 213 181 132 102 60 41 56 62 52 47 55 62 73 94 104 104 102 95 17 295 313 1 6 19 48 54 56 63 65 66 68 72 77 87 93 84 77 95 114 133 211 341 289 316 73 124 130 119 136 173 236 221 198 206 238 249 264 270 274 286 295 300 303 300 294 299 305 306 311 318 322 319 317 321 323 322 321 320 320 321
43 44 45 46 48 51 50 43 25 255 266 316 7 50 77 31 18 33 47 57 74 92 99 98 93 346 331 289 350 5 6 355 9 41 52 53 48 48 59 69 63 55 64 75 86 111 133 99 57 4 351 46 89 120 132 139 170 271 261 219 215 255 271 273 271 269 280 292 300 300 294 293 301 309 314 319 321 321 318 316 319 320 318 316 315 315 315
46 48 50 53 55 59 61 61 63 69 73 74 76 80 87 18 340 13 40 54 67 92 97 85 78 348 336 289 316 357 359 346 8 34 37 34 29 25 38 52 55 64 81 98 98 78 119 134 100 88 26 54 80 101 104 116 156 259 265 233 235 275 275 276 286 283 282 292 305 310 308 310 315 317 313 313 314 316 315 316 318 318 314 312 313 314 317
48 49 54 59 60 63 68 69 70 73 76 76 75 71 64 54 26 18 45 58 58 71 85 89 102 99 308 252 319 359 358 345 6 25 26 13 4 352 360 21 31 40 47 74 130 128 122 130 100 74 17 50 84 99 101 136 194 254 279 264 264 285 283 281 289 286 285 294 301 301 300 303 307 309 308 308 311 316 318 318 317 317 316 317 318 323 328
45 48 54 63 63 61 62 64 68 74 75 71 66 58 55 54 49 42 44 75 71 63 57 69 113 240 333 344 36 10 13 18 359 1 358 348 358 8 327 341 5 46 40 40 103 91 21 61 96 99 12 13 59 103 177 237 245 274 296 283 280 296 293 284 280 275 291 305 302 291 291 298 305 311 311 309 312 318 322 323 323 323 323 326 329 332 333
36 41 48 58 58 51 47 50 59 66 66 60 54 49 51 55 52 48 48 55 62 56 32 40 77 91 6 360 305 336 10 33 42 311 292 312 355 37 112 327 355 64 39 10 74 86 26 46 128 154 190 16 30 210 226 250 272 295 304 297 305 321 312 299 296 293 305 314 312 306 308 310 311 312 310 308 315 323 327 330 334 335 332 330 331 331 332
28 27 34 41 38 35 34 37 44 53 52 44 39 40 45 52 52 51 55 57 58 72 136 63 62 99 54 338 280 320 1 19 302 305 315 297 343 21 67 62 4 196 38 34 60 76 29 55 134 162 301 287 215 213 208 214 251 281 295 294 303 317 302 295 303 308 311 314 312 309 314 318 314 314 318 320 325 332 334 334 338 338 332 325 325 327 327
29 27 22 4 19 35 40 37 40 49 43 24 20 31 34 38 47 47 49 49 47 52 75 92 89 163 186 257 277 327 351 346 303 341 348 289 298 341 43 72 310 281 26 34 33 104 29 41 77 118 223 227 211 205 197 189 215 251 281 290 293 295 288 296 312 320 320 323 327 329 332 334 332 331 334 332 331 333 335 333 334 332 325 319 320 323 324
30 28 28 40 50 45 26 13 23 37 20 3 4 26 20 21 38 40 26 24 27 32 50 74 98 268 6 288 287 331 352 335 333 360 347 253 288 333 23 80 133 274 7 339 271 240 35 30 50 114 251 270 296 220 219 211 214 232 257 280 286 294 301 309 324 337 334 333 337 337 337 336 332 328 330 329 325 325 327 327 327 326 322 318 319 321 322
28 29 37 51 64 79 330 352 6 11 357 355 11 38 16 15 36 33 345 355 11 7 24 55 128 195 86 20 307 339 27 33 360 355 349 310 324 330 344 29 23 15 16 326 298 24 10 337 12 359 281 285 314 249 237 226 224 257 285 295 293 302 311 315 322 334 330 319 320 321 322 322 319 315 316 316 316 318 321 322 323 324 322 319 319 319 320
38 51 52 52 62 73 52 10 349 339 342 1 24 47 32 21 44 66 350 24 32 343 350 55 173 230 127 77 284 313 27 37 2 318 319 301 286 46 48 13 334 14 353 283 286 33 45 277 347 351 272 249 244 246 247 240 245 270 294 304 304 313 319 316 318 325 322 313 313 315 313 312 310 307 306 307 311 315 317 319 320 321 320 319 319 320 320
43 62 75 93 106 82 47 23 11 17 40 35 31 44 42 10 9 28 49 45 21 292 271 65 22 320 338 94 203 261 344 17 62 123 111 312 320 59 38 317 318 50 299 261 267 62 74 56 319 288 246 235 239 253 269 279 268 277 297 307 310 318 320 315 317 323 323 318 315 315 315 315 314 312 311 312 314 313 312 313 316 317 318 319 321 322 322
74 91 99 101 96 71 30 22 22 28 51 61 36 27 12 353 6 20 32 55 357 282 277 87 347 281 277 250 211 233 301 357 30 77 68 333 334 83 80 326 2 38 255 254 341 56 51 312 290 274 254 247 252 262 275 272 262 275 296 305 311 317 315 312 315 319 321 320 315 312 313 314 313 312 312 312 312 312 312 313 315 317 320 322 324 325 326
90 96 103 98 59 27 21 22 23 31 51 51 40 24 349 352 23 30 331 295 268 277 286 287 299 302 304 316 248 234 269 351 19 70 72 340 354 56 53 18 13 12 253 352 53 55 276 238 239 247 249 251 256 264 267 263 264 280 296 304 311 316 313 310 310 315 320 323 318 311 310 309 309 311 314 314 314 316 319 322 324 324 325 326 327 327 330
104 65 66 76 30 18 20 352 3 48 61 31 59 112 356 335 331 207 290 303 282 264 285 326 3 346 317 328 30 328 313 16 56 78 13 344 21 54 48 294 259 269 341 26 48 301 247 236 234 246 259 269 271 267 262 264 270 282 293 300 307 312 312 313 315 316 319 321 319 315 313 311 311 315 318 320 322 323 323 325 328 329 330 329 328 328 331
110 13 36 41 360 356 28 336 348 42 74 34 173 160 171 239 229 211 224 233 192 267 323 18 78 75 268 274 51 58 329 2 29 7 336 11 23 21 240 239 268 33 39 10 330 306 282 267 260 261 264 270 274 273 266 269 276 279 284 294 302 307 308 310 313 314 315 316 316 316 315 313 314 316 318 321 325 327 325 326 328 330 330 330 329 329 331
96 63 72 82 352 339 74 87 356 30 144 202 200 181 180 198 205 206 217 207 159 162 278 117 99 87 295 295 7 54 16 30 28 334 86 76 29 265 241 231 25 41 41 343 305 278 254 252 254 255 256 264 275 281 277 279 285 287 283 281 291 300 306 309 312 314 315 315 315 314 313 313 315 318 318 320 324 328 329 329 330 331 330 329 328 329 330
93 67 82 104 36 355 51 153 217 201 192 207 208 199 193 223 250 244 225 197 177 153 144 137 107 99 264 285 19 359 355 45 45 289 357 94 215 277 359 35 337 211 129 275 267 253 247 252 256 253 260 272 282 286 286 286 286 283 278 275 283 293 302 307 309 313 315 315 314 314 315 318 321 323 323 323 325 327 329 331 331 332 331 330 329 330 330
105 64 74 117 174 240 213 157 129 238 230 214 221 225 177 101 296 269 218 168 147 133 133 137 26 331 320 21 52 317 303 14 62 261 9 78 47 328 11 10 304 264 201 209 231 239 240 242 245 253 267 278 282 280 281 283 282 279 277 278 282 289 297 301 304 309 313 313 312 313 316 321 324 325 326 325 324 326 329 331 331 331 331 330 330 330 329
85 85 82 100 136 174 175 114 76 322 280 269 323 306 156 152 262 255 202 149 133 164 188 179 152 144 279 343 54 64 349 329 53 347 4 19 15 235 72 320 300 297 258 221 224 236 243 242 251 271 282 282 281 281 279 278 280 280 278 278 284 291 295 298 302 309 313 314 312 313 318 323 326 327 327 326 324 324 326 329 329 329 330 330 330 328 328
64 77 88 93 107 165 187 116 75 323 298 296 291 232 174 175 252 237 189 162 138 54 88 106 91 102 53 6 39 39 311 266 144 83 15 294 198 166 182 244 244 242 240 236 234 241 248 250 257 276 283 281 278 282 285 285 284 283 283 285 290 296 298 298 302 309 314 316 316 316 319 324 327 326 324 323 320 320 323 327 330 331 332 332 332 330 329
45 67 84 99 130 165 170 149 142 208 248 252 242 209 177 175 228 210 181 162 124 59 60 165 111 58 46 27 34 38 264 264 91 85 263 237 175 142 187 238 236 228 239 257 255 247 250 251 241 248 271 284 282 284 290 293 290 288 288 290 292 296 299 302 305 309 314 317 318 318 321 326 329 329 326 324 323 324 326 328 332 334 333 332 331 330 328
61 85 83 32 79 148 147 126 128 195 214 224 222 200 179 188 197 178 163 148 115 91 171 176 93 70 45 288 235 140 26 26 34 306 256 237 193 174 196 222 236 236 246 266 275 269 258 254 248 244 250 267 280 289 296 297 293 290 290 290 290 295 299 302 305 310 314 317 319 322 326 331 335 335 332 330 329 329 327 325 328 330 330 329 329 329 329